Chattanooga, TN

6:24 PM EDT on July 21, 2017 (GMT -0400)
Lovell

Weather History for KCHA - December, 2013

Change the Weather History Date:

Tuesday, December 17, 2013

  Actual Average Record
Temperature  
Mean Temperature 48 °F 42 °F  
Max Temperature 62 °F 51 °F 75 °F (1924)
Min Temperature 33 °F 33 °F 11 °F (1945)
Degree Days  
Heating Degree Days 17 23  
Month to date heating degree days 323 361  
Since 1 July heating degree days 954 950  
Moisture  
Dew Point 31 °F    
Average Humidity 59    
Maximum Humidity 82    
Minimum Humidity 36    
Precipitation  
Precipitation 0.00 in 0.16 in 4.65 in (1961)
Month to date precipitation 4.33 2.85  
Year to date precipitation 65.12 50.43  
Snow  
Snow 0.00 in 0.00 in - ()
Month to date snowfall 0.0 0.1  
Since 1 July snowfall T 0.1  
Snow Depth 0.00 in    
Sea Level Pressure  
Sea Level Pressure 30.16 in    
Wind  
Wind Speed 8 mph (WSW)    
Max Wind Speed 20 mph    
Max Gust Speed 26 mph    
Visibility 10 miles    
Events      
T = Trace of Precipitation, MM = Missing Value Source: NWS Daily Summary

Daily Weather History Graph

Daily Weather History Graph

Search for Another Location

Airport or City:

Trip Planner

Search our weather history database for the weather conditions in past years. The results will help you decide how hot, cold, wet, or windy it might be!

Date:

Astronomy

Dec. 17, 2013 Rise Set
Actual Time 7:42 AM EST 5:31 PM EST
Civil Twilight 7:14 AM EST 5:59 PM EST
Nautical Twilight 6:43 AM EST 6:31 PM EST
Astronomical Twilight 6:12 AM EST 7:02 PM EST
Moon 6:08 PM EST (12/17) 7:40 AM EST (12/17)
Length of Visible Light 10h 44m
Length of Day
9h 48m
Full, 100% of the Moon is Illuminated
Dec 17
Full
Dec 25
Last Quarter
Jan 1
New
Jan 7
First Quarter
Jan 15
Full

Hourly Weather History & Observations

Time (EST) Temp. Windchill Dew Point Humidity Pressure Visibility Wind Dir Wind Speed Gust Speed Precip Events Conditions
12:53 AM 45.0 °F 41.8 °F 28.9 °F 53% 30.19 in 10.0 mi SW 5.8 mph - N/A   Clear
1:53 AM 46.0 °F 44.8 °F 28.0 °F 50% 30.18 in 10.0 mi South 3.5 mph - N/A   Clear
2:53 AM 45.0 °F 42.6 °F 28.0 °F 52% 30.20 in 10.0 mi South 4.6 mph - N/A   Clear
3:53 AM 46.9 °F - 28.0 °F 48% 30.20 in 10.0 mi SSW 4.6 mph - N/A   Clear
4:53 AM 35.1 °F - 30.0 °F 82% 30.20 in 10.0 mi Calm Calm - N/A   Clear
5:53 AM 37.9 °F 34.4 °F 28.9 °F 70% 30.18 in 10.0 mi SSW 4.6 mph - N/A   Clear
6:53 AM 35.1 °F 32.2 °F 28.9 °F 78% 30.19 in 10.0 mi NNW 3.5 mph - N/A   Clear
7:53 AM 34.0 °F - 28.9 °F 82% 30.20 in 10.0 mi Calm Calm - N/A   Scattered Clouds
8:53 AM 41.0 °F 39.0 °F 32.0 °F 70% 30.21 in 10.0 mi North 3.5 mph - N/A   Scattered Clouds
9:53 AM 48.9 °F - 30.9 °F 50% 30.19 in 10.0 mi SSE 5.8 mph - N/A   Scattered Clouds
10:53 AM 54.0 °F - 32.0 °F 43% 30.18 in 10.0 mi WSW 10.4 mph - N/A   Scattered Clouds
11:53 AM 55.0 °F - 33.1 °F 43% 30.15 in 10.0 mi WSW 10.4 mph - N/A   Partly Cloudy
12:53 PM 57.9 °F - 34.0 °F 41% 30.11 in 10.0 mi SSW 9.2 mph 16.1 mph N/A   Partly Cloudy
1:53 PM 60.1 °F - 33.1 °F 36% 30.08 in 10.0 mi WSW 10.4 mph - N/A   Clear
2:53 PM 61.0 °F - 34.0 °F 36% 30.06 in 10.0 mi WSW 12.7 mph 21.9 mph N/A   Clear
3:53 PM 61.0 °F - 34.0 °F 36% 30.06 in 10.0 mi SW 11.5 mph - N/A   Scattered Clouds
4:53 PM 60.1 °F - 34.0 °F 38% 30.09 in 10.0 mi WSW 10.4 mph - N/A   Scattered Clouds
5:53 PM 57.9 °F - 34.0 °F 41% 30.10 in 10.0 mi West 10.4 mph - N/A   Scattered Clouds
6:53 PM 55.9 °F - 35.1 °F 45% 30.12 in 10.0 mi WNW 11.5 mph 21.9 mph N/A   Scattered Clouds
7:53 PM 53.1 °F - 35.1 °F 50% 30.16 in 10.0 mi NNW 10.4 mph - N/A   Scattered Clouds
8:53 PM 48.9 °F - 30.9 °F 50% 30.20 in 10.0 mi North 13.8 mph - N/A   Scattered Clouds
9:53 PM 46.0 °F 41.4 °F 27.0 °F 47% 30.23 in 10.0 mi NNW 9.2 mph - N/A   Partly Cloudy
10:53 PM 44.1 °F 39.5 °F 27.0 °F 51% 30.26 in 10.0 mi NNW 8.1 mph - N/A   Clear
11:53 PM 39.0 °F 34.0 °F 28.0 °F 65% 30.27 in 10.0 mi NW 6.9 mph - N/A   Clear